Home   Weather   Fort Bragg   Past weeks

Flag for USA Past Weather in Fort Bragg, California, USA — Yesterday and Last 2 Weeks

Now
94 °F

Sunny.


Feels Like: 92 °F
Forecast: 54 / 71 °F
Wind: 9 mph from Southeast

Location: Ukiah Municipal

Current Time: Aug 18, 2017 at 3:00:41 pm

Latest Report: Aug 18, 2017 at 1:56 pm


Visibility: 10 mi

Pressure: 29.88 "Hg

Humidity: 28%

Dew Point: 56 °F

Location of Fort BraggLocation

Past Weather in Fort Bragg — Graph

°F

Fort Bragg Temperature Yesterday

Maximum temperature yesterday: 96 °F (at 3:56 pm)
Minimum temperature yesterday: 56 °F (at 6:56 am)
Average temperature yesterday: 74 °F

High & Low Weather Summary for the Past Weeks

 TemperatureHumidityPressure
High105 °F (Aug 3, 2:56 pm)93% (Aug 17, 6:56 am)30.00 "Hg (Aug 17, 6:56 am)
Low54 °F (Aug 16, 4:56 am)5% (Aug 3, 5:56 pm)29.73 "Hg (Aug 14, 4:56 pm)
Average75 °F52%29.87 "Hg
* Reported Aug 3 12:56 pm — Aug 18 12:56 pm, Fort Bragg. Weather by CustomWeather, © 2017

Note: Actual official high and low records may vary slightly from our data, if they occured in-between our weather recording intervals... More about our weather records

Advertising

Fort Bragg Weather History for the Previous 24 Hours

Scroll right to see more
 ConditionsComfort  
Time TempWeatherWind HumidityBarometerVisibility
12:56 pm
Fri, Aug 18
87 °FSunny.3 mph33%29.90 "Hg10 mi
11:56 am82 °FSunny.3 mph43%29.93 "Hg10 mi
10:56 am75 °FSunny.No wind52%29.96 "Hg10 mi
9:56 am68 °FSunny.No wind65%29.97 "Hg10 mi
8:56 am63 °FSunny.3 mph78%29.98 "Hg10 mi
7:56 am58 °FSunny.5 mph90%29.98 "Hg10 mi
6:56 am57 °FSunny.No wind93%29.97 "Hg10 mi
5:56 am57 °FClear.6 mph93%29.95 "Hg10 mi
4:56 am58 °FClear.7 mph90%29.94 "Hg10 mi
3:56 am60 °FClear.6 mph83%29.93 "Hg10 mi
2:56 am63 °FClear.6 mph75%29.93 "Hg10 mi
1:56 am65 °FClear.3 mph73%29.92 "Hg10 mi
12:56 am66 °FClear.No wind75%29.93 "Hg10 mi
11:56 pm
Thu, Aug 17
69 °FClear.No wind66%29.93 "Hg10 mi
10:56 pm71 °FClear.No wind63%29.94 "Hg10 mi
9:56 pm74 °FClear.No wind53%29.93 "Hg10 mi
8:56 pm79 °FClear.No wind42%29.92 "Hg10 mi
7:56 pm82 °FSunny.No wind41%29.91 "Hg10 mi
6:56 pm88 °FSunny.9 mph31%29.90 "Hg10 mi
5:56 pm92 °FSunny.9 mph25%29.90 "Hg10 mi
4:56 pm95 °FSunny.9 mph23%29.90 "Hg10 mi
3:56 pm96 °FSunny.12 mph23%29.90 "Hg10 mi
Weather by CustomWeather, © 2017

See weather overviewHow to use our weather pages